Flag for Chile Weather past 2 weeks in Temuco, Chile

Now
64 °F

Sunny.


Feels Like: 64 °F
Forecast: 46 / 70 °F
Wind: 7 mph from West

Location: Concepcion Airport

Current Time: Apr 28, 2015 at 2:00:53 PM

Latest Report: Apr 28, 2015 at 1:00 PM


Visibility: 10 mi

Pressure: 29.98 "Hg

Humidity: 60%

Dew point: 50 °F

Location of TemucoLocation

Historic Weather in Temuco — Graph

°F

Temuco temperature yesterday

Maximum temperature yesterday: 63 °F (at 5:00 PM)
Minimum temperature yesterday: 50 °F (at 9:00 AM)
Average temperature yesterday: 54 °F

Past Weeks' High & Low Weather Summary

 TemperatureHumidityPressure
High70 °F (Apr 13, 2:00 PM)100% (Apr 16, 1:00 AM)30.27 "Hg (Apr 16, 1:00 AM)
Low43 °F (Apr 18, 5:00 AM)40% (Apr 17, 2:00 PM)29.77 "Hg (Apr 18, 5:02 PM)
Average55 °F81%30.03 "Hg
* Reported Apr 13 1:00 PM — Apr 28 1:00 PM, Temuco, Weather by CustomWeather, © 2015

Note: Actual official high and low records may vary slightly from our data, if they occured in-between our weather recording intervals... More about our weather records

Advertising

Temuco weather history for previous 24 hours

 ConditionsComfort  
Time TempWeatherWind HumidityBarometerVisibility
1:00 PM
Tue, Apr 28
64 °FSunny.7 mph60%29.98 "Hg10 mi
12:00 PM63 °FBroken clouds.6 mph64%29.98 "Hg5 mi
11:00 AM57 °FBroken clouds.5 mph77%29.98 "Hg5 mi
10:00 AM54 °FSunny.6 mph82%29.98 "Hg10 mi
9:00 AM48 °FSunny.6 mph94%29.98 "Hg10 mi
8:00 AM48 °FSunny.3 mph100%29.98 "Hg10 mi
7:00 AM46 °FClear.2 mph100%29.98 "Hg10 mi
6:00 AM48 °FClear.5 mph100%29.95 "Hg10 mi
5:00 AM48 °FClear.3 mph100%29.98 "Hg10 mi
4:00 AM50 °FClear.3 mph100%30.01 "Hg10 mi
3:00 AM52 °FClear.3 mph94%30.01 "Hg10 mi
2:00 AM50 °FFog.2 mph94%30.01 "Hg4 mi
1:00 AM50 °FFog.5 mph94%30.01 "Hg4 mi
12:00 AM50 °FFog.1 mph94%30.04 "Hg3 mi
11:00 PM
Mon, Apr 27
52 °FClear.No wind94%30.04 "Hg10 mi
10:00 PM54 °FClear.1 mph88%30.01 "Hg10 mi
9:00 PM54 °FClear.2 mph94%30.01 "Hg10 mi
8:00 PM55 °FClear.3 mph88%30.01 "Hg10 mi
7:00 PM59 °FClear.3 mph82%29.98 "Hg10 mi
6:00 PM63 °FPassing clouds.7 mph68%29.98 "HgN/A
5:00 PM63 °FSunny.3 mph64%29.98 "Hg10 mi
4:00 PM59 °FPassing clouds.6 mph72%29.98 "HgN/A
3:00 PM57 °FPassing clouds.10 mph77%29.98 "HgN/A
2:00 PM57 °FSunny.7 mph77%30.01 "Hg4 mi
Weather by CustomWeather, © 2015

See weather overviewHow to use our weather pages